Drummond Island, MI

7:13 AM EST on December 10, 2016 (GMT -0500)
Drummond Island

Weather History for KDRM - June, 2014

Change the Weather History Date:

Tuesday, June 17, 2014

  Actual Average (KCIU) Record (KCIU)
Temperature  
Mean Temperature 61 °F -  
Max Temperature 67 °F 69 °F 87 °F (2006)
Min Temperature 55 °F 45 °F 35 °F (1999)
Degree Days  
Heating Degree Days 4    
Growing Degree Days 11 (Base 50)    
Moisture  
Dew Point 60 °F    
Average Humidity 99    
Maximum Humidity 100    
Minimum Humidity 92    
Precipitation  
Precipitation 0.00 in - - ()
Sea Level Pressure  
Sea Level Pressure 29.84 in    
Wind  
Wind Speed 4 mph (South)    
Max Wind Speed 12 mph    
Max Gust Speed 18 mph    
Visibility 8 miles    
Events Rain    
Averages and records for this station are not official NWS values.
T = Trace of Precipitation, MM = Missing Value Source: NWS Daily Summary

Daily Weather History Graph

Daily Weather History Graph

Search for Another Location

Airport or City:

Trip Planner

Search our weather history database for the weather conditions in past years. The results will help you decide how hot, cold, wet, or windy it might be!

Date:

Astronomy

Jun. 17, 2014 Rise Set
Actual Time 5:43 AM EDT 9:28 PM EDT
Civil Twilight 5:04 AM EDT 10:06 PM EDT
Nautical Twilight 4:13 AM EDT 10:58 PM EDT
Astronomical Twilight 3:00 AM EDT 12:11 AM EDT
Moon 12:05 AM EDT (6/17) 11:11 AM EDT (6/17)
Length of Visible Light 17h 01m
Length of Day
15h 44m
Waning Gibbous, 73% of the Moon is Illuminated
Jun 17
Waning Gibbous
Jun 19
Last Quarter
Jun 27
New
Jul 5
First Quarter
Jul 12
Full

Hourly Weather History & Observations

Time (EDT) Temp. Dew Point Humidity Pressure Visibility Wind Dir Wind Speed Gust Speed Precip Events Conditions
12:15 AM 60.4 °F 58.1 °F 92% 29.95 in 10.0 mi SE 4.6 mph - N/A   Overcast
12:34 AM 59.9 °F 58.5 °F 95% 29.95 in 10.0 mi SSE 4.6 mph - N/A   Scattered Clouds
12:55 AM 59.0 °F 58.6 °F 99% 29.94 in 10.0 mi SSE 4.6 mph - N/A   Clear
1:14 AM 58.6 °F 58.6 °F 100% 29.93 in 10.0 mi SSE 6.9 mph - N/A   Clear
1:34 AM 58.1 °F 58.1 °F 100% 29.92 in 7.0 mi SSE 4.6 mph - N/A   Clear
1:55 AM 57.7 °F 57.7 °F 100% 29.92 in 7.0 mi SSE 4.6 mph - N/A   Clear
2:14 AM 57.2 °F 57.2 °F 100% 29.92 in 7.0 mi Calm Calm - N/A   Clear
2:35 AM 57.2 °F 57.2 °F 100% 29.91 in 7.0 mi Calm Calm - N/A   Clear
2:54 AM 57.0 °F 57.0 °F 100% 29.92 in 10.0 mi Calm Calm - N/A   Clear
3:15 AM 56.7 °F 56.7 °F 100% 29.91 in 10.0 mi Calm Calm - N/A   Clear
3:35 AM 56.3 °F 56.3 °F 100% 29.92 in 7.0 mi Calm Calm - N/A   Clear
3:54 AM 56.3 °F 56.3 °F 100% 29.90 in 10.0 mi SE 3.5 mph - N/A   Clear
4:14 AM 56.3 °F 56.3 °F 100% 29.90 in 10.0 mi Calm Calm - N/A   Clear
4:35 AM 56.7 °F 56.7 °F 100% 29.90 in 10.0 mi Calm Calm - N/A   Clear
4:55 AM 55.9 °F 55.9 °F 100% 29.90 in 10.0 mi Calm Calm - N/A   Clear
5:14 AM 56.7 °F 56.7 °F 100% 29.89 in 10.0 mi Calm Calm - N/A   Clear
5:35 AM 57.7 °F 56.7 °F 96% 29.88 in 10.0 mi SE 3.5 mph - N/A   Clear
5:55 AM 57.6 °F 56.7 °F 97% 29.88 in 10.0 mi SE 3.5 mph - N/A   Clear
6:14 AM 57.6 °F 56.7 °F 97% 29.87 in 10.0 mi SE 5.8 mph - N/A   Clear
6:35 AM 57.4 °F 56.5 °F 97% 29.87 in 10.0 mi SSE 6.9 mph - N/A   Clear
6:54 AM 57.9 °F 56.3 °F 94% 29.87 in 10.0 mi SSE 9.2 mph - N/A   Clear
7:15 AM 57.9 °F 56.3 °F 94% 29.91 in 7.0 mi SW 5.8 mph - N/A Rain Heavy Rain
7:35 AM 56.8 °F 56.8 °F 100% 29.90 in 5.0 mi Calm Calm - N/A Rain Rain
7:54 AM 57.6 °F 57.6 °F 100% 29.90 in 10.0 mi SSE 6.9 mph - N/A Rain Light Rain
8:15 AM 56.8 °F 56.8 °F 100% 29.88 in 7.0 mi ESE 4.6 mph - N/A Rain Light Rain
8:52 AM 57.4 °F 57.4 °F 100% 29.83 in 5.0 mi Calm Calm - N/A   Drizzle
9:15 AM 58.3 °F 58.3 °F 100% 29.82 in 5.0 mi ESE 3.5 mph - N/A Rain Light Rain
9:34 AM 59.0 °F 59.0 °F 100% 29.81 in 5.0 mi SE 5.8 mph - N/A Rain Rain
9:55 AM 59.9 °F 59.9 °F 100% 29.79 in 2.5 mi SE 4.6 mph - N/A Rain Rain
10:15 AM 61.2 °F 61.2 °F 100% 29.78 in 7.0 mi SSE 9.2 mph - N/A Rain Light Rain
10:34 AM 61.2 °F 61.2 °F 100% 29.77 in 2.5 mi SE 5.8 mph - N/A Rain Heavy Rain
10:55 AM 61.2 °F 61.2 °F 100% 29.78 in 4.0 mi SE 11.5 mph 17.3 mph N/A Rain Light Rain
11:15 AM 60.4 °F 60.4 °F 100% 29.76 in 5.0 mi SE 11.5 mph 17.3 mph N/A Rain Light Rain
11:34 AM 60.1 °F 60.1 °F 100% 29.75 in 3.0 mi SE 10.4 mph - N/A Rain Rain
11:55 AM 59.4 °F 59.4 °F 100% 29.74 in 3.0 mi SE 11.5 mph 18.4 mph N/A Rain Rain
12:14 PM 59.5 °F 59.5 °F 100% 29.73 in 5.0 mi SSE 8.1 mph - N/A   Drizzle
12:34 PM 59.2 °F 59.2 °F 100% 29.72 in 5.0 mi SSE 6.9 mph - N/A   Drizzle
12:55 PM 59.4 °F 59.4 °F 100% 29.70 in 5.0 mi SE 6.9 mph - N/A   Light Drizzle
1:14 PM 60.1 °F 60.1 °F 100% 29.70 in 5.0 mi SSE 5.8 mph - N/A   Overcast
1:35 PM 59.9 °F 59.9 °F 100% 29.71 in 5.0 mi South 6.9 mph - N/A   Overcast
1:55 PM 59.4 °F 59.4 °F 100% 29.72 in 2.5 mi South 3.5 mph - N/A   Overcast
2:14 PM 59.9 °F 59.9 °F 100% 29.72 in 7.0 mi Calm Calm - N/A   Overcast
2:35 PM 61.2 °F 61.2 °F 100% 29.72 in 10.0 mi Calm Calm - N/A   Overcast
2:54 PM 61.7 °F 61.7 °F 100% 29.73 in 7.0 mi West 4.6 mph - N/A   Overcast
3:15 PM 61.0 °F 61.0 °F 100% 29.74 in 4.0 mi NW 3.5 mph - N/A   Overcast
3:35 PM 61.3 °F 61.3 °F 100% 29.74 in 10.0 mi NW 4.6 mph - N/A   Overcast
3:54 PM 61.7 °F 61.7 °F 100% 29.74 in 10.0 mi NNW 5.8 mph - N/A   Overcast
4:15 PM 61.9 °F 61.9 °F 100% 29.75 in 10.0 mi North 8.1 mph - N/A   Overcast
4:35 PM 62.1 °F 62.1 °F 100% 29.76 in 10.0 mi NNW 3.5 mph - N/A   Overcast
4:54 PM 62.4 °F 62.4 °F 100% 29.77 in 10.0 mi NNW 4.6 mph - N/A   Overcast
5:15 PM 62.8 °F 62.8 °F 100% 29.78 in 10.0 mi Calm Calm - N/A   Overcast
5:34 PM 62.6 °F 62.6 °F 100% 29.80 in 4.0 mi Calm Calm - N/A   Overcast
5:55 PM 62.6 °F 62.6 °F 100% 29.80 in 5.0 mi West 5.8 mph - N/A   Overcast
6:15 PM 65.3 °F 65.1 °F 99% 29.80 in 10.0 mi West 8.1 mph - N/A   Overcast
6:34 PM 67.1 °F 65.5 °F 95% 29.81 in 10.0 mi West 8.1 mph - N/A   Scattered Clouds
6:55 PM 66.6 °F 65.3 °F 96% 29.82 in 10.0 mi West 4.6 mph - N/A   Mostly Cloudy
7:14 PM 66.4 °F 65.1 °F 96% 29.83 in 10.0 mi WNW 4.6 mph - N/A   Overcast
7:35 PM 66.4 °F 64.8 °F 95% 29.84 in 10.0 mi West 6.9 mph - N/A   Overcast
7:55 PM 66.7 °F 64.8 °F 93% 29.85 in 10.0 mi NW 6.9 mph - N/A   Mostly Cloudy
8:14 PM 66.4 °F 64.0 °F 92% 29.87 in 10.0 mi NW 5.8 mph - N/A   Clear
8:35 PM 65.7 °F 63.3 °F 92% 29.88 in 10.0 mi WNW 6.9 mph - N/A   Clear
8:55 PM 64.9 °F 62.6 °F 92% 29.88 in 10.0 mi West 3.5 mph - N/A   Clear
9:14 PM 63.7 °F 61.9 °F 94% 29.88 in 10.0 mi WNW 3.5 mph - N/A   Clear
9:35 PM 62.2 °F 61.7 °F 98% 29.89 in 10.0 mi NW 3.5 mph - N/A   Clear
9:54 PM 61.7 °F 61.3 °F 99% 29.89 in 10.0 mi Calm Calm - N/A   Clear
10:15 PM 60.4 °F 60.4 °F 100% 29.89 in 10.0 mi NW 3.5 mph - N/A   Clear
10:54 PM 62.1 °F 60.8 °F 96% 29.91 in 10.0 mi WNW 5.8 mph - N/A   Clear
11:15 PM 61.3 °F 60.4 °F 97% 29.92 in 10.0 mi Calm Calm - N/A   Clear
11:34 PM 60.1 °F 60.1 °F 100% 29.93 in 10.0 mi West 4.6 mph - N/A   Clear
11:55 PM 59.9 °F 59.9 °F 100% 29.94 in 10.0 mi WSW 3.5 mph - N/A   Clear